Weather History for KLVJ - May, 2013

Change the Weather History Date:

Tuesday, May 21, 2013

  Actual Average (KHOU) Record (KHOU)
Temperature  
Mean Temperature 80 °F 78 °F  
Max Temperature 84 °F 88 °F 96 °F (2005)
Min Temperature 75 °F 69 °F 53 °F (1892)
Cooling Degree Days 14 13  
Month to date cooling degree days 228  
Year to date cooling degree days 509  
Growing Degree Days 30 (Base 50)    
Moisture  
Dew Point 72 °F    
Average Humidity 80    
Maximum Humidity 94    
Minimum Humidity 62    
Precipitation  
Precipitation 0.00 in 0.15 in 5.45 in (1945)
Month to date precipitation 3.43  
Year to date precipitation 16.73  
Sea Level Pressure  
Sea Level Pressure 29.85 in    
Wind  
Wind Speed 9 mph (SSE)    
Max Wind Speed 17 mph    
Max Gust Speed 28 mph    
Visibility 8 miles    
Events Rain    
T = Trace of Precipitation, MM = Missing Value Source: NWS Daily Summary

Daily Weather History Graph

Daily Weather History Graph

Search for Another Location

Airport or City:

Trip Planner

Search our weather history database for the weather conditions in past years. The results will help you decide how hot, cold, wet, or windy it might be!

Date:

Astronomy

May. 21, 2013 Rise Set
Actual Time 6:25 AM CDT 8:10 PM CDT
Civil Twilight 5:58 AM CDT 8:36 PM CDT
Nautical Twilight 5:27 AM CDT 9:08 PM CDT
Astronomical Twilight 4:53 AM CDT 9:42 PM CDT
Moon 4:39 PM CDT (5/21) 3:36 AM CDT (5/21)
Length of Visible Light 14h 38m
Length of Day
13h 45m
Waxing Gibbous, 84% of the Moon is Illuminated
May 21
Waxing Gibbous
May 24
Full
May 31
Last Quarter
Jun 8
New
Jun 16
First Quarter

Hourly Weather History & Observations

Time (CDT) Temp. Heat Index Dew Point Humidity Pressure Visibility Wind Dir Wind Speed Gust Speed Precip Events Conditions
12:04 AM 77.0 °F - 73.4 °F 89% 29.88 in 6.0 mi SSE 6.9 mph - 0.00 in Rain Light Rain
12:27 AM 77.0 °F - 73.4 °F 89% 29.88 in 6.0 mi South 4.6 mph - 0.00 in   Overcast
12:53 AM 77.0 °F - 73.9 °F 90% 29.88 in 7.0 mi SSE 3.5 mph - 0.00 in   Overcast
1:53 AM 77.0 °F - 73.0 °F 88% 29.87 in 7.0 mi South 4.6 mph - N/A   Overcast
2:15 AM 77.0 °F - 73.4 °F 89% 29.85 in 7.0 mi SSE 5.8 mph - N/A   Overcast
2:53 AM 75.9 °F - 73.0 °F 91% 29.83 in 7.0 mi SSE 5.8 mph - N/A   Mostly Cloudy
3:27 AM 75.2 °F - 73.4 °F 94% 29.83 in 6.0 mi SE 5.8 mph - N/A   Overcast
3:53 AM 75.9 °F - 73.0 °F 91% 29.83 in 6.0 mi SE 10.4 mph - N/A   Overcast
4:00 AM 75.2 °F - 73.4 °F 94% 29.83 in 6.0 mi SE 9.2 mph - N/A   Overcast
4:32 AM 75.2 °F - 73.4 °F 94% 29.84 in 5.0 mi SE 10.4 mph - N/A   Overcast
4:53 AM 75.9 °F - 73.0 °F 91% 29.84 in 6.0 mi SE 10.4 mph - N/A   Overcast
5:17 AM 75.2 °F - 71.6 °F 89% 29.85 in 7.0 mi SE 10.4 mph - N/A   Overcast
5:26 AM 75.2 °F - 71.6 °F 89% 29.85 in 7.0 mi SE 8.1 mph - N/A   Overcast
5:53 AM 75.9 °F - 72.0 °F 87% 29.86 in 8.0 mi SSE 8.1 mph - N/A   Overcast
6:07 AM 75.2 °F - 71.6 °F 89% 29.86 in 9.0 mi SSE 6.9 mph - N/A   Overcast
6:26 AM 75.2 °F - 71.6 °F 89% 29.86 in 9.0 mi SSE 6.9 mph - N/A   Mostly Cloudy
6:46 AM 75.2 °F - 71.6 °F 89% 29.86 in 7.0 mi SSE 6.9 mph - N/A   Mostly Cloudy
6:53 AM 75.9 °F - 72.0 °F 87% 29.86 in 7.0 mi SSE 8.1 mph - N/A   Mostly Cloudy
7:50 AM 77.0 °F - 71.6 °F 83% 29.87 in 8.0 mi SE 11.5 mph - N/A   Scattered Clouds
7:53 AM 77.0 °F - 72.0 °F 84% 29.87 in 8.0 mi SE 11.5 mph - N/A   Scattered Clouds
8:09 AM 77.0 °F - 71.6 °F 83% 29.87 in 9.0 mi SSE 13.8 mph 21.9 mph N/A   Mostly Cloudy
8:21 AM 77.0 °F - 71.6 °F 83% 29.87 in 9.0 mi SSE 10.4 mph 20.7 mph N/A   Mostly Cloudy
8:53 AM 78.1 °F - 70.0 °F 76% 29.88 in 10.0 mi SSE 12.7 mph 24.2 mph N/A   Mostly Cloudy
9:50 AM 80.6 °F 83.9 °F 69.8 °F 70% 29.88 in 10.0 mi SSE 15.0 mph 27.6 mph N/A   Scattered Clouds
9:53 AM 80.1 °F 83.2 °F 70.0 °F 71% 29.88 in 10.0 mi South 17.3 mph 27.6 mph N/A   Partly Cloudy
10:40 AM 80.6 °F 83.9 °F 69.8 °F 70% 29.88 in 10.0 mi South 12.7 mph 21.9 mph N/A   Mostly Cloudy
10:53 AM 82.0 °F 85.9 °F 70.0 °F 67% 29.87 in 10.0 mi South 17.3 mph 20.7 mph N/A   Overcast
11:40 AM 82.4 °F 86.3 °F 69.8 °F 66% 29.87 in 10.0 mi South 17.3 mph 26.5 mph N/A   Scattered Clouds
11:53 AM 82.9 °F 87.0 °F 70.0 °F 65% 29.87 in 10.0 mi South 16.1 mph 27.6 mph N/A   Scattered Clouds
12:22 PM 82.4 °F 86.3 °F 69.8 °F 66% 29.86 in 10.0 mi SSE 16.1 mph 25.3 mph N/A   Mostly Cloudy
12:53 PM 82.9 °F 87.0 °F 70.0 °F 65% 29.85 in 10.0 mi South 16.1 mph 21.9 mph N/A   Mostly Cloudy
1:28 PM 84.2 °F 89.6 °F 71.6 °F 66% 29.84 in 10.0 mi SSE 13.8 mph 23.0 mph N/A   Mostly Cloudy
1:53 PM 82.9 °F 87.0 °F 70.0 °F 65% 29.84 in 10.0 mi SSE 15.0 mph 21.9 mph N/A   Mostly Cloudy
2:00 PM 84.2 °F 88.4 °F 69.8 °F 62% 29.84 in 10.0 mi South 12.7 mph 21.9 mph N/A   Mostly Cloudy
2:53 PM 84.0 °F 89.0 °F 71.1 °F 65% 29.83 in 10.0 mi South 11.5 mph 20.7 mph N/A   Mostly Cloudy
3:53 PM 84.0 °F 89.0 °F 71.1 °F 65% 29.82 in 10.0 mi SSE 12.7 mph 20.7 mph N/A   Mostly Cloudy
4:53 PM 82.9 °F 87.5 °F 71.1 °F 67% 29.79 in 10.0 mi South 12.7 mph 20.7 mph N/A   Overcast
5:53 PM 81.0 °F 85.2 °F 72.0 °F 74% 29.76 in 10.0 mi South 13.8 mph - N/A   Overcast
6:53 PM 81.0 °F 85.2 °F 72.0 °F 74% 29.75 in 9.0 mi SSE 13.8 mph 19.6 mph N/A   Overcast
7:53 PM 80.1 °F 84.2 °F 73.0 °F 79% 29.77 in 8.0 mi SSE 10.4 mph - N/A   Overcast
8:53 PM 79.0 °F - 73.0 °F 82% 29.80 in 9.0 mi South 4.6 mph - N/A   Overcast
9:19 PM 78.8 °F - 73.4 °F 83% 29.82 in 9.0 mi SE 4.6 mph - N/A   Overcast
9:53 PM 79.0 °F - 73.0 °F 82% 29.85 in 9.0 mi Calm Calm - N/A   Overcast
10:53 PM 79.0 °F - 73.9 °F 84% 29.84 in 8.0 mi SE 4.6 mph - N/A   Overcast
11:14 PM 78.8 °F - 73.4 °F 83% 29.84 in 8.0 mi SSE 4.6 mph - N/A   Overcast
11:53 PM 78.1 °F - 73.9 °F 87% 29.85 in 7.0 mi SSE 4.6 mph - N/A   Overcast